Home > Weather > Holguín > Past weeks

Flag for Cuba Weather for the Past 2 Weeks in Holguín, Cuba

Now
88 °F

Scattered clouds.


Feels Like: 90 °F
Forecast: 69 / 87 °F
Wind: 15 mph from Northeast

Location: Holguin Civ / Mil

Current Time: Apr 30, 2016 at 3:41:24 PM

Latest Report: Apr 30, 2016 at 2:51 PM


Visibility: 6 mi

Pressure: 29.86 "Hg

Humidity: 49%

Dew Point: 66 °F

Location of HolguínLocation

Historic Weather in Holguín — Graph

°F

Holguín Temperature Yesterday

Maximum temperature yesterday: 90 °F (at 2:50 PM)
Minimum temperature yesterday: 68 °F (at 6:50 AM)
Average temperature yesterday: 79 °F

High & Low Weather Summary for the Past Weeks

 TemperatureHumidityPressure
High93 °F (Apr 15, 4:50 PM)94% (Apr 17, 6:50 AM)30.07 "Hg (Apr 17, 6:50 AM)
Low61 °F (Apr 19, 3:50 AM)28% (Apr 15, 4:50 PM)29.83 "Hg (Apr 15, 3:51 PM)
Average78 °F67%29.94 "Hg
* Reported Apr 15 1:50 PM — Apr 30 1:50 PM, Holguín, Weather by CustomWeather, © 2016

Note: Actual official high and low records may vary slightly from our data, if they occured in-between our weather recording intervals... More about our weather records

Advertising

Holguín Weather History for the Previous 24 Hours

Scroll right to see more
 ConditionsComfort  
Time TempWeatherWind HumidityBarometerVisibility
1:50 PM
Sat, Apr 30
88 °FScattered clouds.15 mph49%29.89 "HgN/A
12:51 PM88 °FScattered clouds.13 mph49%29.89 "HgN/A
11:51 AM88 °FScattered clouds.7 mph40%29.92 "Hg6 mi
10:50 AM82 °FScattered clouds.7 mph55%29.92 "Hg6 mi
9:51 AM82 °FScattered clouds.9 mph62%29.92 "Hg6 mi
8:50 AM77 °FPassing clouds.5 mph79%29.92 "Hg6 mi
7:50 AM73 °FPassing clouds.3 mph83%29.92 "Hg6 mi
6:50 AM68 °FClear.5 mph88%29.92 "Hg6 mi
5:50 AM66 °FClear.2 mph94%29.92 "Hg6 mi
4:50 AM68 °FClear.1 mph88%29.89 "Hg6 mi
3:50 AM70 °FClear.1 mph88%29.89 "Hg10 mi
2:50 AM72 °FClear.7 mph83%29.89 "Hg10 mi
1:50 AM72 °FClear.5 mph83%29.92 "Hg10 mi
12:50 AM72 °FClear.7 mph83%29.92 "Hg10 mi
11:50 PM
Fri, Apr 29
73 °FClear.6 mph78%29.95 "Hg10 mi
10:50 PM73 °FClear.6 mph78%29.95 "Hg10 mi
9:50 PM75 °FClear.7 mph74%29.95 "Hg10 mi
8:50 PM77 °FClear.10 mph69%29.92 "Hg10 mi
7:50 PM79 °FPassing clouds.12 mph65%29.92 "HgN/A
6:50 PM81 °FPassing clouds.15 mph58%29.89 "HgN/A
5:50 PM84 °FPassing clouds.15 mph48%29.89 "HgN/A
4:50 PM86 °FPassing clouds.15 mph46%29.86 "HgN/A
3:50 PM88 °FPassing clouds.17 mph43%29.89 "HgN/A
Weather by CustomWeather, © 2016

See weather overviewHow to use our weather pages